| time (UTC) | temp F | wind direction | speed knots | gust knots | rain 1hr in | rain 24hr in | rain mn in | humidity % | barometer mb |
| 20260503200027 | 59 | 71 | 2.6 | 11.3 | 0.00 | 0.00 | 0.00 | 37 | 1016.9 |
| 20260503195524 | 59 | 278 | 1.7 | 6.1 | 0.00 | 0.00 | 0.00 | 34 | 1016.6 |
| 20260503195021 | 57 | 196 | 0.0 | 5.2 | 0.00 | 0.00 | 0.00 | 32 | 1016.6 |
| 20260503194518 | 57 | 294 | 0.0 | 1.7 | 0.00 | 0.00 | 0.00 | 37 | 1017.0 |
| 20260503194017 | 59 | 210 | 1.7 | 7.8 | 0.00 | 0.00 | 0.00 | 31 | 1017.0 |
| 20260503193514 | 60 | 257 | 1.7 | 2.6 | 0.00 | 0.00 | 0.00 | 35 | 1016.9 |
| 20260503193010 | 57 | 238 | 3.5 | 8.7 | 0.00 | 0.00 | 0.00 | 35 | 1017.0 |
| 20260503192507 | 57 | 274 | 5.2 | 7.0 | 0.00 | 0.00 | 0.00 | 36 | 1017.2 |
| 20260503192002 | 58 | 278 | 7.0 | 9.6 | 0.00 | 0.00 | 0.00 | 39 | 1017.1 |
| 20260503191459 | 57 | 244 | 2.6 | 8.7 | 0.00 | 0.00 | 0.00 | 36 | 1017.1 |
| 20260503190955 | 60 | 280 | 0.9 | 5.2 | 0.00 | 0.00 | 0.00 | 35 | 1017.3 |
| 20260503190453 | 59 | 218 | 2.6 | 6.1 | 0.00 | 0.00 | 0.00 | 33 | 1017.2 |
| 20260503185950 | 58 | 93 | 3.5 | 3.5 | 0.00 | 0.00 | 0.00 | 31 | 1017.4 |
| 20260503185446 | 58 | 238 | 0.0 | 5.2 | 0.00 | 0.00 | 0.00 | 36 | 1017.4 |
| 20260503184946 | 58 | 261 | 1.7 | 5.2 | 0.00 | 0.00 | 0.00 | 35 | 1017.5 |
| 20260503184443 | 59 | 236 | 5.2 | 8.7 | 0.00 | 0.00 | 0.00 | 37 | 1017.7 |
| 20260503183939 | 58 | 227 | 0.9 | 3.5 | 0.00 | 0.00 | 0.00 | 43 | 1017.5 |
| 20260503183436 | 57 | 226 | 5.2 | 7.0 | 0.00 | 0.00 | 0.00 | 46 | 1017.4 |
| 20260503182933 | 57 | 265 | 5.2 | 8.7 | 0.00 | 0.00 | 0.00 | 39 | 1017.8 |
| 20260503182432 | 57 | 60 | 0.9 | 5.2 | 0.00 | 0.00 | 0.00 | 37 | 1017.8 |
| 20260503181929 | 58 | 221 | 1.7 | 2.6 | 0.00 | 0.00 | 0.00 | 38 | 1017.8 |
| 20260503181426 | 57 | 52 | 1.7 | 3.5 | 0.00 | 0.00 | 0.00 | 39 | 1017.8 |
| 20260503180922 | 56 | 235 | 7.0 | 9.6 | 0.00 | 0.00 | 0.00 | 36 | 1018.0 |
| 20260503180420 | 56 | 239 | 3.5 | 6.1 | 0.00 | 0.00 | 0.00 | 42 | 1018.1 |
| 20260503175916 | 55 | 279 | 6.1 | 7.8 | 0.00 | 0.00 | 0.00 | 42 | 1018.0 |
| 20260503175414 | 55 | 258 | 6.1 | 8.7 | 0.00 | 0.00 | 0.00 | 39 | 1018.1 |
| 20260503174909 | 55 | 226 | 2.6 | 6.1 | 0.00 | 0.00 | 0.00 | 42 | 1018.4 |
| 20260503174408 | 55 | 221 | 3.5 | 8.7 | 0.00 | 0.00 | 0.00 | 42 | 1018.2 |
| 20260503173903 | 55 | 239 | 1.7 | 6.1 | 0.00 | 0.00 | 0.00 | 42 | 1018.0 |
| 20260503173359 | 55 | 252 | 5.2 | 7.0 | 0.00 | 0.00 | 0.00 | 47 | 1018.2 |
| 20260503172856 | 55 | 236 | 0.9 | 3.5 | 0.00 | 0.00 | 0.00 | 37 | 1018.2 |
| 20260503172354 | 54 | 230 | 3.5 | 7.8 | 0.00 | 0.00 | 0.00 | 40 | 1018.8 |
| 20260503171850 | 54 | 244 | 3.5 | 8.7 | 0.00 | 0.00 | 0.00 | 44 | 1018.5 |
| 20260503171347 | 55 | 222 | 6.1 | 7.8 | 0.00 | 0.00 | 0.00 | 46 | 1018.6 |
| 20260503170844 | 55 | 127 | 0.9 | 3.5 | 0.00 | 0.00 | 0.00 | 41 | 1018.4 |
| 20260503170340 | 54 | 66 | 1.7 | 2.6 | 0.00 | 0.00 | 0.00 | 40 | 1018.8 |
| 20260503150733 | 49 | 312 | 3.5 | 8.7 | 0.00 | 0.00 | 0.00 | 54 | 1019.8 |
| 20260503150229 | 49 | 235 | 2.6 | 7.0 | 0.00 | 0.00 | 0.00 | 54 | 1019.9 |
| 20260503140153 | 47 | 221 | 2.6 | 5.2 | 0.00 | 0.00 | 0.00 | 64 | 1020.1 |
| 20260503131123 | 43 | 231 | 3.5 | 6.1 | 0.00 | 0.00 | 0.00 | 70 | 1020.0 |
| 20260503130620 | 43 | 267 | 3.5 | 5.2 | 0.00 | 0.00 | 0.00 | 72 | 1020.0 |
| 20260503130118 | 43 | 220 | 1.7 | 5.2 | 0.00 | 0.00 | 0.00 | 75 | 1020.0 |
| 20260503110510 | 31 | 209 | 0.0 | 0.0 | 0.00 | 0.00 | 0.00 | 97 | 1019.4 |
| 20260503090356 | 31 | 180 | 0.0 | 0.0 | 0.00 | 0.00 | 0.00 | 96 | 1018.1 |
| 20260503081318 | 33 | 180 | 0.0 | 0.0 | 0.00 | 0.00 | 0.00 | 95 | 1017.8 |
| 20260503080814 | 33 | 180 | 0.0 | 0.0 | 0.00 | 0.00 | 0.00 | 95 | 1017.9 |
| 20260503080311 | 33 | 180 | 0.0 | 0.0 | 0.00 | 0.00 | 0.00 | 94 | 1018.0 |
| 20260503072748 | 35 | 180 | 0.0 | 0.0 | 0.00 | 0.00 | 0.00 | 92 | 1017.6 |
| 20260503072244 | 35 | 180 | 0.0 | 0.0 | 0.00 | 0.00 | 0.00 | 92 | 1017.5 |
| 20260503071740 | 36 | 180 | 0.0 | 0.0 | 0.00 | 0.00 | 0.00 | 92 | 1017.5 |
| 20260503071238 | 36 | 180 | 0.0 | 0.0 | 0.00 | 0.00 | 0.00 | 91 | 1017.3 |
| 20260503070734 | 37 | 180 | 0.0 | 0.0 | 0.00 | 0.00 | 0.00 | 91 | 1017.4 |
| 20260503070232 | 37 | 180 | 0.0 | 0.0 | 0.00 | 0.00 | 0.00 | 90 | 1017.2 |
| 20260503060151 | 38 | 180 | 0.0 | 0.0 | 0.00 | 0.00 | 0.00 | 89 | 1017.3 |
| 20260503054638 | 38 | 180 | 0.0 | 0.9 | 0.00 | 0.00 | 0.00 | 89 | 1017.3 |
| 20260503054135 | 38 | 178 | 0.0 | 0.0 | 0.00 | 0.00 | 0.00 | 89 | 1017.3 |
| 20260503053633 | 38 | 176 | 0.0 | 0.0 | 0.00 | 0.00 | 0.00 | 89 | 1017.3 |
| 20260503053132 | 38 | 176 | 0.0 | 0.0 | 0.00 | 0.00 | 0.00 | 89 | 1017.3 |
| 20260503052628 | 38 | 176 | 0.0 | 0.0 | 0.00 | 0.00 | 0.00 | 90 | 1017.2 |
| 20260503052124 | 39 | 176 | 0.0 | 0.0 | 0.00 | 0.00 | 0.00 | 90 | 1017.3 |
| 20260503051619 | 39 | 176 | 0.0 | 0.0 | 0.00 | 0.00 | 0.00 | 90 | 1017.1 |
| 20260503051118 | 39 | 176 | 0.0 | 0.0 | 0.00 | 0.00 | 0.00 | 90 | 1017.2 |
| 20260503050614 | 38 | 176 | 0.0 | 0.0 | 0.00 | 0.00 | 0.00 | 90 | 1017.1 |
| 20260503050111 | 38 | 176 | 0.0 | 0.0 | 0.00 | 0.00 | 0.00 | 90 | 1017.3 |
| 20260503045608 | 38 | 176 | 0.0 | 0.0 | 0.00 | 0.00 | 0.00 | 89 | 1017.2 |
| 20260503045105 | 38 | 176 | 0.0 | 0.0 | 0.00 | 0.00 | 0.00 | 89 | 1017.3 |
| 20260503044602 | 38 | 176 | 0.0 | 0.0 | 0.00 | 0.00 | 0.00 | 89 | 1017.3 |
| 20260503044059 | 39 | 176 | 0.0 | 0.0 | 0.00 | 0.00 | 0.00 | 89 | 1017.1 |
| 20260503043554 | 39 | 176 | 0.0 | 0.0 | 0.00 | 0.00 | 0.00 | 89 | 1017.3 |
| 20260503043051 | 39 | 176 | 0.0 | 0.0 | 0.00 | 0.00 | 0.00 | 89 | 1017.2 |
| 20260503042548 | 39 | 176 | 0.0 | 0.0 | 0.00 | 0.00 | 0.00 | 88 | 1017.1 |
| 20260503042044 | 39 | 176 | 0.0 | 0.0 | 0.00 | 0.00 | 0.00 | 88 | 1017.2 |
| 20260503041542 | 39 | 176 | 0.0 | 0.0 | 0.00 | 0.00 | 0.00 | 89 | 1017.3 |
| 20260503041039 | 39 | 176 | 0.0 | 0.0 | 0.00 | 0.00 | 0.00 | 89 | 1017.4 |
| 20260503040537 | 39 | 176 | 0.0 | 0.0 | 0.00 | 0.00 | 0.00 | 88 | 1017.2 |
| 20260503040034 | 39 | 176 | 0.0 | 0.0 | 0.00 | 0.00 | 0.00 | 89 | 1017.3 |
| 20260503035530 | 39 | 176 | 0.0 | 0.0 | 0.00 | 0.00 | 0.00 | 89 | 1017.2 |
| 20260503035028 | 39 | 176 | 0.0 | 0.0 | 0.00 | 0.00 | 0.00 | 89 | 1017.4 |
| 20260503034525 | 39 | 176 | 0.0 | 0.0 | 0.00 | 0.00 | 0.00 | 89 | 1017.4 |
| 20260503034022 | 39 | 176 | 0.0 | 0.0 | 0.00 | 0.00 | 0.00 | 89 | 1017.4 |
| 20260503033519 | 39 | 176 | 0.0 | 0.0 | 0.00 | 0.00 | 0.00 | 88 | 1017.4 |
| 20260503033018 | 39 | 176 | 0.0 | 0.0 | 0.00 | 0.00 | 0.00 | 88 | 1017.4 |
| 20260503032515 | 39 | 176 | 0.0 | 0.0 | 0.00 | 0.00 | 0.00 | 88 | 1017.2 |
| 20260503032013 | 39 | 176 | 0.0 | 0.0 | 0.00 | 0.00 | 0.00 | 88 | 1017.2 |
| 20260503031511 | 39 | 176 | 0.0 | 0.0 | 0.00 | 0.00 | 0.00 | 87 | 1017.2 |
| 20260503031007 | 39 | 176 | 0.0 | 0.0 | 0.00 | 0.00 | 0.00 | 87 | 1017.3 |
| 20260503030503 | 40 | 176 | 0.0 | 0.0 | 0.00 | 0.00 | 0.00 | 88 | 1017.4 |
| 20260503030000 | 40 | 176 | 0.0 | 0.0 | 0.00 | 0.00 | 0.00 | 87 | 1017.4 |
| 20260503025457 | 40 | 132 | 0.0 | 0.0 | 0.00 | 0.00 | 0.00 | 86 | 1017.3 |
| 20260503024955 | 40 | 129 | 0.0 | 0.0 | 0.00 | 0.00 | 0.00 | 84 | 1017.3 |
| 20260503024451 | 41 | 72 | 1.7 | 1.7 | 0.00 | 0.00 | 0.00 | 77 | 1017.3 |
| 20260503023949 | 42 | 3 | 0.0 | 0.0 | 0.00 | 0.00 | 0.00 | 77 | 1017.3 |
| 20260503023445 | 42 | 256 | 0.0 | 0.9 | 0.00 | 0.00 | 0.00 | 77 | 1017.1 |
| 20260503022942 | 42 | 106 | 0.0 | 0.0 | 0.00 | 0.00 | 0.00 | 77 | 1017.3 |
| 20260503022437 | 42 | 80 | 0.0 | 0.9 | 0.00 | 0.00 | 0.00 | 74 | 1017.1 |
| 20260503021933 | 43 | 73 | 0.0 | 0.0 | 0.00 | 0.00 | 0.00 | 74 | 1017.2 |
| 20260503021430 | 43 | 93 | 0.0 | 0.9 | 0.00 | 0.00 | 0.00 | 74 | 1017.3 |
| 20260503020927 | 43 | 93 | 0.0 | 0.9 | 0.00 | 0.00 | 0.00 | 72 | 1017.2 |
| 20260503020426 | 43 | 90 | 0.0 | 1.7 | 0.00 | 0.00 | 0.00 | 72 | 1017.1 |
| 20260503015922 | 43 | 72 | 0.0 | 1.7 | 0.00 | 0.00 | 0.00 | 70 | 1017.3 |
| 20260503015419 | 44 | 55 | 0.0 | 0.0 | 0.00 | 0.00 | 0.00 | 71 | 1017.1 |
| 20260503014914 | 44 | 100 | 0.0 | 0.0 | 0.00 | 0.00 | 0.00 | 69 | 1017.1 |
| 20260503014411 | 44 | 98 | 0.0 | 0.0 | 0.00 | 0.00 | 0.00 | 70 | 1017.0 |
| 20260503013909 | 44 | 97 | 0.0 | 1.7 | 0.00 | 0.00 | 0.00 | 68 | 1017.3 |
| 20260503013406 | 44 | 88 | 0.0 | 1.7 | 0.00 | 0.00 | 0.00 | 69 | 1017.0 |
| 20260503012903 | 44 | 83 | 0.0 | 1.7 | 0.00 | 0.00 | 0.00 | 67 | 1016.8 |
| 20260503012401 | 44 | 152 | 0.0 | 0.0 | 0.00 | 0.00 | 0.00 | 68 | 1016.8 |
| 20260503011857 | 43 | 234 | 0.0 | 0.0 | 0.00 | 0.00 | 0.00 | 71 | 1016.8 |
| 20260503011354 | 44 | 242 | 0.0 | 0.0 | 0.00 | 0.00 | 0.00 | 74 | 1016.6 |
| 20260503010850 | 44 | 245 | 0.0 | 0.0 | 0.00 | 0.00 | 0.00 | 71 | 1016.4 |
| 20260503010348 | 45 | 220 | 1.7 | 1.7 | 0.00 | 0.00 | 0.00 | 63 | 1016.4 |
| 20260503005844 | 45 | 226 | 0.9 | 1.7 | 0.00 | 0.00 | 0.00 | 63 | 1016.5 |
| 20260503005342 | 45 | 274 | 0.0 | 0.0 | 0.00 | 0.00 | 0.00 | 70 | 1016.3 |
| 20260503004838 | 46 | 274 | 1.7 | 2.6 | 0.00 | 0.00 | 0.00 | 65 | 1016.5 |
| 20260503004336 | 46 | 221 | 1.7 | 2.6 | 0.00 | 0.00 | 0.00 | 62 | 1016.2 |
| 20260503003834 | 45 | 260 | 0.0 | 0.0 | 0.00 | 0.00 | 0.00 | 64 | 1016.0 |
| 20260503003330 | 46 | 254 | 1.7 | 2.6 | 0.00 | 0.00 | 0.00 | 64 | 1015.9 |
| 20260503002827 | 46 | 227 | 1.7 | 1.7 | 0.00 | 0.00 | 0.00 | 65 | 1016.1 |
| 20260503002324 | 46 | 255 | 0.9 | 1.7 | 0.00 | 0.00 | 0.00 | 62 | 1016.0 |
| 20260503001820 | 46 | 242 | 0.0 | 0.0 | 0.00 | 0.00 | 0.00 | 61 | 1016.0 |
| 20260503001316 | 46 | 228 | 1.7 | 1.7 | 0.00 | 0.00 | 0.00 | 59 | 1015.9 |
| 20260503000814 | 47 | 96 | 0.0 | 1.7 | 0.00 | 0.00 | 0.00 | 59 | 1015.7 |
| 20260503000312 | 47 | 96 | 0.0 | 1.7 | 0.00 | 0.00 | 0.00 | 56 | 1015.5 |
| 20260502235808 | 47 | 245 | 0.0 | 0.9 | 0.00 | 0.00 | 0.00 | 54 | 1015.7 |
| 20260502235306 | 47 | 290 | 0.0 | 1.7 | 0.00 | 0.00 | 0.00 | 58 | 1015.6 |
| 20260502234802 | 48 | 249 | 0.9 | 2.6 | 0.00 | 0.00 | 0.00 | 56 | 1015.5 |
| 20260502234259 | 48 | 242 | 3.5 | 7.0 | 0.00 | 0.00 | 0.00 | 52 | 1015.5 |
| 20260502233755 | 48 | 257 | 0.0 | 1.7 | 0.00 | 0.00 | 0.00 | 55 | 1015.5 |
| 20260502233252 | 49 | 259 | 1.7 | 3.5 | 0.00 | 0.00 | 0.00 | 52 | 1015.4 |
| 20260502232748 | 49 | 312 | 1.7 | 1.7 | 0.00 | 0.00 | 0.00 | 50 | 1015.2 |
| 20260502232245 | 49 | 212 | 0.9 | 5.2 | 0.00 | 0.00 | 0.00 | 49 | 1015.2 |
| 20260502231742 | 50 | 290 | 1.7 | 2.6 | 0.00 | 0.00 | 0.00 | 49 | 1015.3 |
| 20260502231240 | 50 | 89 | 3.5 | 3.5 | 0.00 | 0.00 | 0.00 | 48 | 1015.2 |
| 20260502230738 | 50 | 218 | 0.9 | 1.7 | 0.00 | 0.00 | 0.00 | 50 | 1014.9 |
| 20260502230236 | 50 | 268 | 1.7 | 2.6 | 0.00 | 0.00 | 0.00 | 50 | 1014.9 |
| 20260502225732 | 50 | 96 | 1.7 | 3.5 | 0.00 | 0.00 | 0.00 | 48 | 1014.8 |
| 20260502225229 | 51 | 87 | 0.0 | 1.7 | 0.00 | 0.00 | 0.00 | 50 | 1014.8 |
| 20260502224725 | 51 | 94 | 0.9 | 2.6 | 0.00 | 0.00 | 0.00 | 48 | 1014.6 |
| 20260502224222 | 51 | 166 | 0.0 | 0.9 | 0.00 | 0.00 | 0.00 | 44 | 1014.6 |
| 20260502223720 | 50 | 218 | 4.3 | 7.8 | 0.00 | 0.00 | 0.00 | 48 | 1014.6 |
| 20260502223218 | 50 | 266 | 0.9 | 5.2 | 0.00 | 0.00 | 0.00 | 45 | 1014.6 |
| 20260502222715 | 51 | 269 | 1.7 | 2.6 | 0.00 | 0.00 | 0.00 | 49 | 1014.7 |
| 20260502222212 | 51 | 251 | 0.9 | 2.6 | 0.00 | 0.00 | 0.00 | 45 | 1014.5 |
| 20260502221708 | 51 | 242 | 0.9 | 0.9 | 0.00 | 0.00 | 0.00 | 45 | 1014.6 |
| 20260502221204 | 51 | 223 | 0.9 | 1.7 | 0.00 | 0.00 | 0.00 | 44 | 1014.6 |
| 20260502220700 | 51 | 231 | 0.9 | 2.6 | 0.00 | 0.00 | 0.00 | 43 | 1014.5 |
| 20260502220157 | 51 | 97 | 0.0 | 2.6 | 0.00 | 0.00 | 0.00 | 44 | 1014.3 |
| 20260502215654 | 51 | 254 | 1.7 | 7.0 | 0.00 | 0.00 | 0.00 | 46 | 1014.3 |
| 20260502215151 | 52 | 143 | 1.7 | 2.6 | 0.00 | 0.00 | 0.00 | 44 | 1014.1 |
| 20260502214648 | 52 | 68 | 3.5 | 3.5 | 0.00 | 0.00 | 0.00 | 44 | 1014.4 |
| 20260502214145 | 52 | 216 | 4.3 | 7.0 | 0.00 | 0.00 | 0.00 | 43 | 1014.3 |
| 20260502213642 | 52 | 223 | 0.9 | 2.6 | 0.00 | 0.00 | 0.00 | 40 | 1014.2 |
| 20260502213140 | 51 | 99 | 0.9 | 2.6 | 0.00 | 0.00 | 0.00 | 46 | 1014.4 |
| 20260502212638 | 51 | 218 | 2.6 | 7.8 | 0.00 | 0.00 | 0.00 | 44 | 1014.2 |
| 20260502212136 | 52 | 5 | 1.7 | 3.5 | 0.00 | 0.00 | 0.00 | 44 | 1014.1 |
| 20260502211631 | 51 | 254 | 1.7 | 2.6 | 0.00 | 0.00 | 0.00 | 42 | 1014.2 |
| 20260502211129 | 52 | 242 | 1.7 | 6.1 | 0.00 | 0.00 | 0.00 | 44 | 1014.3 |
| 20260502210626 | 52 | 96 | 1.7 | 2.6 | 0.00 | 0.00 | 0.00 | 40 | 1014.1 |
| 20260502210123 | 53 | 225 | 2.6 | 5.2 | 0.00 | 0.00 | 0.00 | 41 | 1014.2 |
| 20260502205620 | 54 | 79 | 5.2 | 6.1 | 0.00 | 0.00 | 0.00 | 38 | 1014.2 |
| 20260502205117 | 52 | 212 | 1.7 | 5.2 | 0.00 | 0.00 | 0.00 | 42 | 1014.1 |
| 20260502204614 | 52 | 258 | 2.6 | 5.2 | 0.00 | 0.00 | 0.00 | 39 | 1014.1 |
| 20260502204111 | 52 | 296 | 0.0 | 3.5 | 0.00 | 0.00 | 0.00 | 40 | 1014.3 |
| 20260502203608 | 52 | 220 | 3.5 | 6.1 | 0.00 | 0.00 | 0.00 | 41 | 1014.2 |
| 20260502203105 | 53 | 286 | 3.5 | 6.1 | 0.00 | 0.00 | 0.00 | 44 | 1014.0 |
| 20260502202601 | 53 | 235 | 3.5 | 8.7 | 0.00 | 0.00 | 0.00 | 43 | 1014.2 |
| 20260502202059 | 55 | 230 | 0.9 | 3.5 | 0.00 | 0.00 | 0.00 | 41 | 1014.3 |
| 20260502201555 | 52 | 223 | 3.5 | 7.8 | 0.00 | 0.00 | 0.00 | 43 | 1014.4 |
| 20260502201047 | 52 | 213 | 6.1 | 8.7 | 0.00 | 0.00 | 0.00 | 43 | 1014.6 |
| 20260502200542 | 52 | 194 | 0.0 | 2.6 | 0.00 | 0.00 | 0.00 | 44 | 1014.5 |